Lawrence, KS

6:11 AM CDT on September 26, 2016 (GMT -0500)
Lawrence Municipal

Weather History for KLWC - July, 2013

Change the Weather History Date:

Thursday, July 11, 2013

  Actual Average Record
Temperature  
Mean Temperature 78 °F 78 °F  
Max Temperature 91 °F 89 °F 100 °F (2011)
Min Temperature 65 °F 67 °F 55 °F (1996)
Degree Days  
Heating Degree Days 0 0  
Month to date heating degree days 0 0  
Since 1 June heating degree days 13 8  
Since 1 July heating degree days 0 0  
Cooling Degree Days 13 13  
Month to date cooling degree days 148 139  
Year to date cooling degree days 587 533  
Since 1 June cooling degree days 460 414  
Growing Degree Days 28 (Base 50)    
Moisture  
Dew Point 60 °F    
Average Humidity 58    
Maximum Humidity 81    
Minimum Humidity 34    
Precipitation  
Precipitation 0.00 in 0.16 in 0.75 in (2004)
Month to date precipitation 0.21 1.77  
Year to date precipitation 15.87 21.12  
Sea Level Pressure  
Sea Level Pressure 30.02 in    
Wind  
Wind Speed 7 mph (East)    
Max Wind Speed 15 mph    
Max Gust Speed 20 mph    
Visibility 10 miles    
Events      
T = Trace of Precipitation, MM = Missing Value Source: NWS Daily Summary

Daily Weather History Graph

Daily Weather History Graph

Search for Another Location

Airport or City:

Trip Planner

Search our weather history database for the weather conditions in past years. The results will help you decide how hot, cold, wet, or windy it might be!

Date:

Astronomy

Jul. 11, 2013 Rise Set
Actual Time 6:04 AM CDT 8:47 PM CDT
Civil Twilight 5:33 AM CDT 9:19 PM CDT
Nautical Twilight 4:54 AM CDT 9:58 PM CDT
Astronomical Twilight 4:09 AM CDT 10:42 PM CDT
Moon 9:22 AM CDT (7/11) 10:30 PM CDT (7/11)
Length of Visible Light 15h 45m
Length of Day
14h 42m
Waxing Crescent, 11% of the Moon is Illuminated
Jul 11
Waxing Crescent
Jul 15
First Quarter
Jul 22
Full
Jul 29
Last Quarter
Aug 6
New

Hourly Weather History & Observations

Time (CDT) Temp. Heat Index Dew Point Humidity Pressure Visibility Wind Dir Wind Speed Gust Speed Precip Events Conditions
12:52 AM 71.1 °F - 63.0 °F 75% 30.02 in 10.0 mi NE 5.8 mph - N/A   Clear
1:52 AM 68.0 °F - 62.1 °F 81% 30.03 in 10.0 mi Calm Calm - N/A   Clear
2:52 AM 70.0 °F - 62.1 °F 76% 30.03 in 10.0 mi ENE 4.6 mph - N/A   Clear
3:52 AM 70.0 °F - 62.1 °F 76% 30.03 in 10.0 mi NE 4.6 mph - N/A   Clear
4:52 AM 70.0 °F - 61.0 °F 73% 30.02 in 10.0 mi East 5.8 mph - N/A   Clear
5:52 AM 69.1 °F - 61.0 °F 75% 30.04 in 10.0 mi East 8.1 mph - N/A   Clear
6:52 AM 66.9 °F - 61.0 °F 81% 30.04 in 10.0 mi East 4.6 mph - N/A   Clear
7:52 AM 73.0 °F - 61.0 °F 66% 30.06 in 10.0 mi East 6.9 mph - N/A   Clear
8:52 AM 75.9 °F - 61.0 °F 60% 30.06 in 10.0 mi East 9.2 mph - N/A   Clear
9:52 AM 80.1 °F 80.7 °F 59.0 °F 48% 30.06 in 10.0 mi East 10.4 mph 17.3 mph N/A   Clear
10:52 AM 82.0 °F 82.1 °F 59.0 °F 45% 30.07 in 10.0 mi Variable 5.8 mph - N/A   Clear
11:52 AM 84.0 °F 83.5 °F 57.9 °F 41% 30.09 in 10.0 mi Variable 3.5 mph - N/A   Clear
12:52 PM 84.9 °F 83.9 °F 57.0 °F 38% 30.07 in 10.0 mi East 5.8 mph - N/A   Clear
1:52 PM 88.0 °F 86.5 °F 55.9 °F 34% 30.03 in 10.0 mi SE 6.9 mph - N/A   Clear
2:52 PM 90.0 °F 88.6 °F 57.0 °F 33% 30.01 in 10.0 mi Variable 5.8 mph - N/A   Clear
3:52 PM 90.0 °F 88.8 °F 57.9 °F 34% 29.99 in 10.0 mi East 11.5 mph - N/A   Clear
4:52 PM 90.0 °F 88.8 °F 57.9 °F 34% 29.98 in 10.0 mi East 12.7 mph 17.3 mph N/A   Clear
5:52 PM 89.1 °F 88.8 °F 60.1 °F 38% 29.97 in 10.0 mi ESE 10.4 mph 17.3 mph N/A   Clear
6:52 PM 87.1 °F 87.0 °F 61.0 °F 41% 29.96 in 10.0 mi ESE 6.9 mph - N/A   Clear
7:52 PM 82.9 °F 83.2 °F 60.1 °F 46% 29.97 in 10.0 mi ESE 6.9 mph - N/A   Clear
8:52 PM 77.0 °F - 59.0 °F 54% 29.97 in 10.0 mi East 6.9 mph - N/A   Clear
9:52 PM 75.0 °F - 59.0 °F 57% 29.98 in 10.0 mi East 8.1 mph - N/A   Clear
10:52 PM 71.1 °F - 59.0 °F 66% 29.99 in 10.0 mi East 6.9 mph - N/A   Clear
11:52 PM 69.1 °F - 59.0 °F 70% 29.99 in 10.0 mi East 4.6 mph - N/A   Clear